Location: Bergnershof
(48.9468°N, 10.9431°E)
Time: 18:41:00
(UTC+00:00)

ERBS - Visible Passes

Search period start: 16 June 2021 00:00
Search period end: 26 June 2021 00:00
Orbit: 399 x 417 km, 57.0° (Epoch: 15 June)

Date Brightness Start Highest point End Pass type
(mag) Time Alt. Az. Time Alt. Az. Time Alt. Az.
19 Jun 4.6 01:41:19 10° SSE 01:43:02 14° SE 01:44:43 10° E visible
20 Jun 2.6 02:24:55 10° SW 02:28:05 53° SE 02:31:16 10° ENE visible
21 Jun 3.5 01:35:41 16° S 01:37:35 28° SE 01:40:26 10° ENE visible
22 Jun 4.2 00:46:38 15° SE 00:47:10 16° SE 00:49:14 10° E visible
22 Jun 2.3 02:19:39 10° WSW 02:22:52 73° NW 02:26:06 10° NE visible
23 Jun 2.3 01:30:16 21° SW 01:32:14 63° SE 01:35:28 10° ENE visible
24 Jun 3.1 00:41:06 30° SSE 00:41:42 33° SE 00:44:40 10° ENE visible
24 Jun 3.3 02:14:39 10° W 02:17:44 40° NNW 02:20:50 10° NE visible
24 Jun 4.2 23:51:53 17° ESE 23:51:53 17° ESE 23:53:34 10° E visible
25 Jun 2.5 01:24:36 16° WSW 01:27:01 63° NNW 01:30:14 10° NE visible
